Location: *
(42.3377°N, 71.0868°W)
Time: 05:04:46
(UTC+00:00)

Cosmos 1437 - Pass Details

Date: 09 April 2020
Orbit: 373 x 376 km, 81.2° (Epoch: 30 May)

Event Time Altitude Azimuth Distance (km) Brightness Sun altitude
Rises 23:41:38 0° 353° (N) 2,255 6.8 -4.7°
Reaches altitude 10° 23:43:39 10° 357° (N) 1,396 5.7 -5.1°
Maximum altitude 23:46:39 62° 79° (E) 431 2.6 -5.6°
Drops below altitude 10° 23:49:37 10° 161° (SSE) 1,379 5.0 -6.2°
Sets 23:51:35 0° 165° (SSE) 2,223 6.1 -6.5°
